TimeEDT,TemperatureF,Dew PointF,Humidity,Sea Level PressureIn,VisibilityMPH,Wind Direction,Wind SpeedMPH,Gust SpeedMPH,PrecipitationIn,Events,Conditions,WindDirDegrees,DateUTC
12:54 AM,55.0,37.9,53,30.30,10.0,Calm,Calm,-,N/A,,Mostly Cloudy,0,2013-04-18 04:54:00
1:54 AM,54.0,39.0,57,30.29,10.0,ESE,3.5,-,N/A,,Mostly Cloudy,110,2013-04-18 05:54:00
2:54 AM,53.1,39.0,59,30.28,10.0,Calm,Calm,-,N/A,,Overcast,0,2013-04-18 06:54:00
3:54 AM,53.1,42.1,66,30.28,10.0,East,5.8,-,N/A,,Overcast,80,2013-04-18 07:54:00
4:54 AM,54.0,41.0,62,30.28,10.0,East,6.9,-,N/A,,Overcast,80,2013-04-18 08:54:00
5:54 AM,54.0,39.9,59,30.26,10.0,East,8.1,-,N/A,,Overcast,80,2013-04-18 09:54:00
6:54 AM,54.0,43.0,66,30.27,10.0,East,10.4,-,N/A,,Overcast,90,2013-04-18 10:54:00
7:54 AM,55.0,48.0,77,30.30,10.0,East,6.9,-,N/A,,Overcast,100,2013-04-18 11:54:00
8:54 AM,55.9,50.0,80,30.30,10.0,East,8.1,-,N/A,,Overcast,90,2013-04-18 12:54:00
9:37 AM,57.2,51.8,82,30.30,10.0,East,5.8,-,N/A,,Overcast,80,2013-04-18 13:37:00
9:54 AM,57.0,51.1,81,30.30,10.0,East,6.9,-,N/A,,Overcast,90,2013-04-18 13:54:00
10:05 AM,57.2,51.8,82,30.30,10.0,East,5.8,-,N/A,,Overcast,90,2013-04-18 14:05:00
10:50 AM,60.8,51.8,72,30.29,10.0,SE,11.5,-,N/A,,Overcast,130,2013-04-18 14:50:00
10:54 AM,60.1,52.0,75,30.30,10.0,ESE,11.5,-,N/A,,Overcast,120,2013-04-18 14:54:00
11:12 AM,60.8,51.8,72,30.29,10.0,ESE,10.4,-,N/A,,Overcast,120,2013-04-18 15:12:00
11:54 AM,61.0,53.1,75,30.29,10.0,SSE,11.5,-,N/A,,Overcast,150,2013-04-18 15:54:00
12:54 PM,61.0,54.0,78,30.26,10.0,SE,10.4,-,0.00,,Overcast,140,2013-04-18 16:54:00
1:54 PM,62.1,54.0,75,30.24,10.0,SSE,6.9,-,0.00,Rain,Light Rain,150,2013-04-18 17:54:00
2:04 PM,62.6,53.6,72,30.23,6.0,SE,8.1,-,0.00,Rain,Light Rain,130,2013-04-18 18:04:00
2:10 PM,62.6,55.4,77,30.23,7.0,SE,10.4,-,0.00,Rain,Light Rain,130,2013-04-18 18:10:00
2:17 PM,62.6,55.4,77,30.23,10.0,ESE,10.4,-,0.00,,Overcast,120,2013-04-18 18:17:00
2:54 PM,63.0,54.0,72,30.22,10.0,ESE,11.5,-,0.00,,Overcast,120,2013-04-18 18:54:00
3:54 PM,64.0,55.9,75,30.19,10.0,ESE,12.7,-,0.00,,Overcast,120,2013-04-18 19:54:00
4:54 PM,64.9,55.9,73,30.17,10.0,East,8.1,-,N/A,,Overcast,90,2013-04-18 20:54:00
5:54 PM,64.9,55.9,73,30.14,10.0,ESE,10.4,-,N/A,,Overcast,110,2013-04-18 21:54:00
6:18 PM,66.2,57.2,73,30.14,10.0,East,8.1,-,N/A,,Overcast,100,2013-04-18 22:18:00
6:41 PM,64.4,57.2,77,30.13,10.0,East,9.2,-,N/A,,Mostly Cloudy,90,2013-04-18 22:41:00
6:54 PM,64.0,55.9,75,30.13,10.0,East,8.1,-,N/A,,Mostly Cloudy,90,2013-04-18 22:54:00
7:54 PM,61.0,55.0,81,30.13,10.0,East,5.8,-,N/A,,Mostly Cloudy,80,2013-04-18 23:54:00
8:54 PM,62.1,55.9,80,30.12,10.0,SSE,10.4,16.1,N/A,,Partly Cloudy,160,2013-04-19 00:54:00
9:54 PM,63.0,57.0,81,30.10,10.0,SSE,8.1,18.4,N/A,,Clear,160,2013-04-19 01:54:00
10:54 PM,62.1,55.9,80,30.09,10.0,SSE,5.8,-,N/A,,Clear,160,2013-04-19 02:54:00
11:54 PM,61.0,55.9,83,30.07,10.0,SSE,5.8,-,N/A,,Scattered Clouds,160,2013-04-19 03:54:00